Location: Cheyres
(46.8153°N, 6.7877°E)
Time: 12:01:19
(UTC+00:00)

Gbstr 26 Del rocket - Pass Details

Date: 17 September 2021
Orbit: 492 x 1263 km, 51.8° (Epoch: 18 October)

Event Time Altitude Azimuth Distance (km) Brightness Sun altitude
Exits shadow 01:45:06 52° 306° (NW) 1,499 4.8 -32.4°
Maximum altitude 01:46:46 62° 353° (N) 1,350 4.7 -32.2°
Drops below altitude 10° 01:54:04 10° 74° (ENE) 2,960 7.2 -31.4°
Sets 01:56:39 0° 77° (ENE) 3,820 7.9 -31.0°
